Hourly Data Report for January 12, 2013

BAGOTVILLE A
QUEBEC

48°20'00.000" N
71°00'00.000" W
159.10 m
7060400
71727
YBG

Download Data

Hourly Data (January 2013)
Hourly Data Report for January 12, 2013
TIME
LST
Temp Definition
°C
Dew Point Definition
°C
Rel Hum Definition
%
Precip. Amount Definition
mm

Wind Dir Definition
10's deg

Wind Spd Definition
km/h
Visibility Definition
km
Stn Press Definition
kPa
Hmdx Definition


Wind Chill Definition


Weather Definition


00:00 -5.1 -7.7 82   9 32 16.1 99.76   -13 Freezing Rain
01:00 -3.6 -8.2 70   9 32 16.1 99.72   -11 Freezing Rain
02:00 -3.3 -8.1 69   10 30 16.1 99.74   -11 Freezing Rain
03:00 -3.0 -8.1 68   9 26 12.9 99.71   -10 Freezing Rain
04:00 -2.6 -4.6 86   9 30 12.9 99.67   -10 Cloudy
05:00 -2.5 -4.2 88   9 28 12.9 99.66   -10 Cloudy
06:00 -2.2 -4.2 86   10 30 12.9 99.59   -9 Freezing Rain
07:00 -2.0 -3.9 87   9 26 16.1 99.61   -9 Freezing Rain
08:00 -1.8 -3.1 91   9 26 40.2 99.61   -8 Cloudy
09:00 -1.5 -2.5 93   10 26 6.4 99.61   -8 Freezing Rain, Fog
10:00 -1.4 -1.8 97   10 24 9.7 99.59   -8 Freezing Rain, Fog
11:00 -0.9 -1.5 96   10 22 19.3 99.48   -7 Cloudy
12:00 -0.2 -1.2 93   11 15 24.1 99.41   -5 Cloudy
13:00 0.1 -0.6 95   9 20 32.2 99.42     Cloudy
14:00 0.5 -0.7 92   10 17 32.2 99.46     Mostly Cloudy
15:00 0.7 -0.8 90   10 17 32.2 99.44     Mostly Cloudy
16:00 0.7 -0.3 93   10 15 32.2 99.40     Cloudy
17:00 0.9 -0.3 92   10 20 24.1 99.36     Mostly Cloudy
18:00 0.6 0.1 96   11 20 24.1 99.27     Mostly Cloudy
19:00 0.8 0.1 95   10 20 24.1 99.28     Mostly Cloudy
20:00 0.6 0.4 99   11 28 24.1 99.20     Mostly Cloudy
21:00 0.5 0.0 96   10 20 24.1 99.22     Mostly Cloudy
22:00 0.6 0.1 96   7 11 24.1 99.30     Mostly Cloudy
23:00 0.5 0.0 96   19 7 24.1 99.40     Cloudy

Notes on Data Quality.

Legend

  • E = Estimated
  • M = Missing
  • NA = Not Available*
  • [empty] = Indicates an unobserved value
Date modified: